DELTA 1 DEB, 29184

Orbit data source: Space-Track

DELTA 1 DEB, 29184 is space debris in LEO originally from a launch on Thu, 11 Jan 1968 UTC launched from the Air Force Western Test Range (AFWTR). Debris objects in space refer to the collection of defunct objects orbiting the Earth. Examples of debris include non-operational satellites, rocket bodies, and fragments generated from explosions, collisions, or faulty payload assembly.

Loading next visibility...
DELTA 1 DEB details
Identifier
29184, 1968-002H
Orbit
LEO
Last TLE update3 days ago
Origin
Flag of USGSFC (US)
ManufacturerUnknown
MissionSpacecraft
Bus & MotorUnknown
MassUnknown
Launch date (UTC)
1968-01-11 (57 years ago)
Launch vehicleUnknown
Launch site
Air Force Western Test Range (AFWTR)
Object type
Payload
Rocket body
Debris
Shape & HBRUnknown
Radar Cross SectionSmall (<0.1 m²)

Expand to show TLE details & history

TLE from 3 days ago
0 DELTA 1 DEB
1 29184U 68002H   24353.20644175  .00001217  00000-0  29180-2 0  9999
2 29184 105.8242 129.6390 0256081  82.4644 280.5455 13.15481823947159
Epoch: 2024-12-18T04:57Z
Definitive object data (Epoch: 2024-12-18T04:57:16.567Z)
Latitude0.00002°
Longitude-31.98402°
Altitude1,173.805 km
Speed7.281 km/s
True Right ascension08h 38m 33s
True Declination0° 00' 00"
Sunlit
Object was in full shadow at TLE epoch
Visualization TLE readout
Latitude17.88516°
Longitude158.1417°
Altitude1,180.649 km
Speed7.276 km/s
Apparent Right ascension22h 05m 48s
Apparent Declination-8° 32' 51"
Sunlit
Object is in daylight
Visualization observer readout
Local Sidereal Time11:15:02
Azimuth30.889° NE
Elevation-55.034°
Doppler factor1
Orbital elements
Apogee altitude1,393.829 km
Perigee altitude1,005.717 km
Semi-major axis7,577.91 km
Eccentricity0.0256081
Inclination105.8242°
RAAN129.639°
Arg. of periapsis82.4644°
True anomaly277.64484°
Mean anomaly280.5455°
Eccentric anomaly279.09672°
Mean motion3.29018 °/min
BSTAR0.002918
Orbital period109.42 mins
Loading maneuver chart data...
Loading historical data...
Loading historical data...
Loading historical data...
Loading historical data...
Loading historical data...
Loading historical data...
Loading historical data...

DELTA 1 DEB Visibility forecast

Observer location: undefined°, undefined

Span
Click to sort rows by Start time (UTC) header in descending order
Start Az.
Max El. time (UTC)
Max El. Az.
Max El.
End time (UTC)
End Az.
7 mins2024-12-21 21:12:16.352Z67.262° ENE2024-12-21 21:15:16.352Z97.535° ESE17.216°2024-12-21 21:19:16.352Z136.497° SSE
11 mins2024-12-21 22:58:16.352Z18.123° NNE2024-12-21 23:03:16.352Z277.201° WNW44.16°2024-12-21 23:09:16.352Z211.492° SW
5 mins2024-12-22 00:47:16.352Z333.462° NNW2024-12-22 00:49:16.352Z312.982° NW14.64°2024-12-22 00:52:16.352Z284.234° WNW
8 mins2024-12-22 07:41:16.352Z98.247° ESE2024-12-22 07:45:16.352Z49.346° ENE23.522°2024-12-22 07:49:16.352Z4.341° NNE
10 mins2024-12-22 09:27:16.352Z177.87° S2024-12-22 09:31:16.352Z232.741° WSW39.443°2024-12-22 09:37:16.352Z327.251° NNW
|